Weather History for KLXV - May, 2014

Change the Weather History Date:

Friday, May 16, 2014

  Actual Average Record
Temperature  
Mean Temperature 43 °F -  
Max Temperature 52 °F 54 °F 70 °F (1988)
Min Temperature 33 °F 27 °F 19 °F (2015)
Degree Days  
Heating Degree Days 22 24  
Month to date heating degree days 480 424  
Since 1 July heating degree days 10366 10425  
Cooling Degree Days 0 0  
Month to date cooling degree days 0 0  
Year to date cooling degree days 0 0  
Moisture  
Dew Point 30 °F    
Average Humidity 62    
Maximum Humidity 92    
Minimum Humidity 32    
Precipitation  
Precipitation 0.09 in 0.02 in 0.24 in (1990)
Month to date precipitation 1.20 0.44  
Year to date precipitation 7.91 3.77  
Sea Level Pressure  
Sea Level Pressure 30.13 in    
Wind  
Wind Speed 10 mph (North)    
Max Wind Speed 26 mph    
Max Gust Speed 36 mph    
Visibility 10 miles    
Events Rain    
T = Trace of Precipitation, MM = Missing Value Source: NWS Daily Summary

Daily Weather History Graph

Daily Weather History Graph

Search for Another Location

Airport or City:

Trip Planner

Search our weather history database for the weather conditions in past years. The results will help you decide how hot, cold, wet, or windy it might be!

Date:

Astronomy

May. 16, 2014 Rise Set
Actual Time 5:51 AM MDT 8:12 PM MDT
Civil Twilight 5:20 AM MDT 8:43 PM MDT
Nautical Twilight 4:43 AM MDT 9:20 PM MDT
Astronomical Twilight 4:02 AM MDT 10:02 PM MDT
Moon 10:22 PM MDT (5/16) 7:35 AM MDT (5/16)
Length of Visible Light 15h 22m
Length of Day
14h 21m
Waning Gibbous, 95% of the Moon is Illuminated
May 16
Waning Gibbous
May 21
Last Quarter
May 28
New
Jun 5
First Quarter
Jun 12
Full

Hourly Weather History & Observations

Time (MDT) Temp. Windchill Dew Point Humidity Pressure Visibility Wind Dir Wind Speed Gust Speed Precip Events Conditions
12:53 AM 37.9 °F 32.1 °F 25.0 °F 60% 30.09 in 10.0 mi North 8.1 mph - N/A   Clear
1:53 AM 37.4 °F 32.1 °F 24.8 °F 60% 30.35 in 10.0 mi North 6.9 mph - N/A   Clear
2:53 AM 37.0 °F 30.4 °F 24.1 °F 59% 30.04 in 10.0 mi North 9.2 mph - N/A   Clear
3:53 AM 34.0 °F 27.2 °F 24.1 °F 67% 30.04 in 10.0 mi NNE 8.1 mph - N/A   Clear
4:53 AM 33.1 °F 24.9 °F 23.0 °F 66% 30.03 in 10.0 mi NE 10.4 mph - N/A   Clear
5:53 AM 36.0 °F 28.0 °F 21.9 °F 57% 30.04 in 10.0 mi NNE 11.5 mph - N/A   Clear
6:53 AM 37.0 °F 29.8 °F 21.9 °F 54% 30.05 in 10.0 mi North 10.4 mph - N/A   Clear
7:53 AM 42.1 °F 37.1 °F 21.9 °F 45% 30.00 in 10.0 mi North 8.1 mph - N/A   Clear
8:53 AM 45.0 °F 37.9 °F 21.9 °F 40% 30.01 in 10.0 mi NNW 16.1 mph 24.2 mph N/A   Clear
9:53 AM 46.9 °F - 21.0 °F 36% 29.99 in 10.0 mi NNW 16.1 mph 27.6 mph N/A   Clear
10:53 AM 48.9 °F - 23.0 °F 36% 29.94 in 10.0 mi NNW 16.1 mph 25.3 mph N/A   Partly Cloudy
11:53 AM 52.0 °F - 23.0 °F 32% 29.90 in 10.0 mi NNW 17.3 mph 32.2 mph N/A   Scattered Clouds
12:53 PM 50.0 °F - 23.0 °F 35% 29.93 in 10.0 mi NNW 13.8 mph 34.5 mph N/A   Partly Cloudy
1:53 PM 48.2 °F - 26.6 °F 43% 30.28 in 10.0 mi WNW 23.0 mph 31.1 mph N/A   Mostly Cloudy
2:10 PM 44.1 °F 36.5 °F 30.0 °F 58% 30.30 in 10.0 mi North 17.3 mph 27.6 mph N/A   Overcast
2:38 PM 39.9 °F 33.4 °F 32.0 °F 73% 30.33 in 10.0 mi NNW 10.4 mph 20.7 mph 0.00 in Rain Light Rain
2:53 PM 37.0 °F 30.4 °F 33.1 °F 86% 30.07 in 6.0 mi North 9.2 mph - 0.01 in Rain Light Rain
3:19 PM 37.9 °F 32.7 °F 34.0 °F 86% 30.32 in 10.0 mi NE 6.9 mph - 0.01 in Rain Light Rain
3:53 PM 39.9 °F 35.1 °F 35.1 °F 83% 30.06 in 10.0 mi North 6.9 mph - 0.02 in Rain Light Rain
4:05 PM 41.0 °F - 34.0 °F 76% 30.31 in 10.0 mi Calm Calm - 0.00 in Rain Light Rain
4:37 PM 41.0 °F 35.8 °F 34.0 °F 76% 30.31 in 10.0 mi North 8.1 mph - 0.00 in   Overcast
4:53 PM 39.0 °F 32.8 °F 33.1 °F 79% 30.06 in 9.0 mi NNE 9.2 mph 19.6 mph 0.00 in Rain Light Rain
5:45 PM 39.0 °F 34.8 °F 35.1 °F 86% 30.30 in 10.0 mi NNE 5.8 mph - 0.04 in   Overcast
5:53 PM 39.0 °F 32.8 °F 35.1 °F 86% 30.03 in 10.0 mi North 9.2 mph - 0.04 in Rain Light Rain
6:13 PM 39.0 °F 35.7 °F 35.1 °F 86% 30.30 in 10.0 mi North 4.6 mph - 0.00 in Rain Light Rain
6:20 PM 39.0 °F 36.8 °F 34.0 °F 82% 30.29 in 10.0 mi NNE 3.5 mph - 0.00 in   Overcast
6:53 PM 39.0 °F - 34.0 °F 82% 30.02 in 10.0 mi Calm Calm - 0.00 in Rain Light Rain
7:41 PM 37.0 °F 32.4 °F 33.1 °F 86% 30.31 in 6.0 mi WNW 5.8 mph - 0.00 in Rain Light Rain
7:53 PM 37.0 °F 34.5 °F 34.0 °F 89% 30.01 in 7.0 mi WNW 3.5 mph - 0.01 in Rain Light Rain
8:03 PM 37.0 °F 33.3 °F 34.0 °F 89% 30.31 in 10.0 mi NE 4.6 mph - 0.00 in Rain Light Rain
8:53 PM 37.4 °F 32.8 °F 33.8 °F 87% 30.31 in 10.0 mi NE 5.8 mph - N/A   Overcast
9:53 PM 36.0 °F 33.3 °F 33.1 °F 89% 29.97 in 10.0 mi NNE 3.5 mph - 0.00 in   Overcast
10:44 PM 37.0 °F 31.0 °F 33.1 °F 86% 30.31 in 10.0 mi North 8.1 mph - 0.00 in Rain Light Rain
10:53 PM 36.0 °F 29.6 °F 33.1 °F 89% 29.96 in 10.0 mi North 8.1 mph - 0.00 in Rain Light Rain
11:30 PM 35.1 °F 32.2 °F 33.1 °F 92% 30.29 in 10.0 mi East 3.5 mph - 0.01 in   Overcast
11:53 PM 34.0 °F 31.0 °F 32.0 °F 92% 29.93 in 10.0 mi NE 3.5 mph - 0.01 in   Mostly Cloudy